Tracking 19484 objects as of 20-Jan-2019
HD Live streaming from Space Station
objects crossing your sky now

COSMOS 1914

Track COSMOS 1914 now!
10-day predictions
COSMOS 1914 is classified as:


NORAD ID: 18793
Int'l Code: 1988-002F
Perigee: 1,389.6 km
Apogee: 1,418.2 km
Inclination: 82.6 °
Period: 113.7 minutes
Semi major axis: 7774 km
RCS: 1.1655 m2 (large)
Launch date: January 15, 1988
Source: Commonwealth of Independent States (former USSR) (CIS)
Launch site: PLESETSK MISSILE AND SPACE COMPLEX (PKMTR)
aabbcc
Your satellite tracking list
Your tracking list is empty




NASA's NSSDC Master Catalog

Two Line Element Set (TLE):
1 18793U 88002F   19019.85402856 -.00000002 +00000-0 -69039-4 0  9999
2 18793 082.6081 145.5447 0018426 074.1195 038.9635 12.66376127433356
Source of the keplerian elements: AFSPC